TimeCDT,TemperatureF,Dew PointF,Humidity,Sea Level PressureIn,VisibilityMPH,Wind Direction,Wind SpeedMPH,Gust SpeedMPH,PrecipitationIn,Events,Conditions,WindDirDegrees,DateUTC
12:53 AM,75.0,71.1,87,29.99,10.0,SSW,4.6,-,N/A,,Clear,210,2012-10-15 05:53:00
1:53 AM,75.0,71.1,87,29.99,10.0,WSW,8.1,-,N/A,,Clear,240,2012-10-15 06:53:00
2:53 AM,75.0,71.1,87,29.98,10.0,SW,5.8,-,N/A,,Partly Cloudy,230,2012-10-15 07:53:00
3:53 AM,73.9,71.1,91,29.97,9.0,SW,3.5,-,N/A,,Clear,230,2012-10-15 08:53:00
4:53 AM,73.9,71.1,91,29.96,8.0,WSW,3.5,-,N/A,,Clear,250,2012-10-15 09:53:00
5:53 AM,73.0,71.1,93,29.96,7.0,SW,5.8,-,N/A,,Clear,220,2012-10-15 10:53:00
6:32 AM,75.2,71.6,89,30.00,7.0,West,3.5,-,N/A,,Mostly Cloudy,280,2012-10-15 11:32:00
6:53 AM,75.9,71.1,85,29.98,6.0,NNW,10.4,-,0.00,Rain,Light Rain,330,2012-10-15 11:53:00
7:03 AM,75.2,69.8,83,30.00,10.0,North,15.0,-,0.00,,Mostly Cloudy,350,2012-10-15 12:03:00
7:53 AM,75.0,70.0,84,29.99,7.0,North,12.7,-,0.00,,Scattered Clouds,350,2012-10-15 12:53:00
8:53 AM,77.0,70.0,79,30.00,7.0,NNE,10.4,-,N/A,,Mostly Cloudy,20,2012-10-15 13:53:00
9:15 AM,75.2,69.8,83,30.02,7.0,North,11.5,-,N/A,,Mostly Cloudy,10,2012-10-15 14:15:00
9:39 AM,77.0,69.8,78,30.03,7.0,NNE,12.7,-,N/A,,Mostly Cloudy,20,2012-10-15 14:39:00
9:53 AM,77.0,70.0,79,30.01,7.0,NNE,10.4,-,N/A,,Mostly Cloudy,20,2012-10-15 14:53:00
10:01 AM,77.0,69.8,78,30.02,7.0,NNE,10.4,-,N/A,,Scattered Clouds,20,2012-10-15 15:01:00
10:05 AM,77.0,69.8,78,30.03,7.0,NNE,10.4,-,N/A,,Mostly Cloudy,20,2012-10-15 15:05:00
10:38 AM,78.8,69.8,74,30.02,8.0,NE,5.8,-,N/A,,Scattered Clouds,50,2012-10-15 15:38:00
10:53 AM,79.0,69.1,72,30.00,8.0,NNE,6.9,-,N/A,,Scattered Clouds,20,2012-10-15 15:53:00
11:53 AM,80.1,69.1,69,29.99,8.0,North,4.6,-,N/A,,Clear,360,2012-10-15 16:53:00
12:53 PM,82.0,68.0,62,29.96,10.0,NNW,6.9,-,N/A,,Clear,330,2012-10-15 17:53:00
1:53 PM,82.0,66.0,58,29.93,10.0,NW,9.2,-,N/A,,Clear,320,2012-10-15 18:53:00
2:53 PM,81.0,64.9,58,29.92,10.0,NW,8.1,-,N/A,,Clear,310,2012-10-15 19:53:00
3:53 PM,82.0,66.0,58,29.92,10.0,NW,6.9,-,N/A,,Clear,310,2012-10-15 20:53:00
4:53 PM,81.0,66.0,60,29.91,10.0,NNW,9.2,-,N/A,,Clear,330,2012-10-15 21:53:00
5:53 PM,80.1,61.0,52,29.91,10.0,North,13.8,-,N/A,,Clear,10,2012-10-15 22:53:00
6:53 PM,79.0,62.1,56,29.92,10.0,NNE,16.1,-,N/A,,Clear,20,2012-10-15 23:53:00
7:53 PM,77.0,62.1,60,29.93,10.0,NNE,15.0,-,N/A,,Clear,30,2012-10-16 00:53:00
8:53 PM,77.0,61.0,58,29.95,10.0,NNE,15.0,-,N/A,,Clear,20,2012-10-16 01:53:00
9:53 PM,75.9,61.0,60,29.97,10.0,NNE,11.5,-,N/A,,Clear,20,2012-10-16 02:53:00
10:53 PM,75.0,59.0,57,29.98,10.0,NNE,13.8,-,N/A,,Clear,30,2012-10-16 03:53:00
11:53 PM,73.9,59.0,59,29.97,10.0,NE,13.8,-,N/A,,Clear,50,2012-10-16 04:53:00